Voltar ao catálogo

STARLINK-31481

AtivoComunicaçõesVLEO
NORAD 59541·PAYLOAD·🇺🇸 United States

Lançado Apr 18, 2024 de Cape Canaveral Space Force Station

Loading…

Próximas Passagens (próximas 24 horas)

TLE

AtualizadoSource: CelesTrak SupGP

Época: Sep 14, 2026, 20:41 UTC

1 59541C 24074H   26257.86229167  .00009218  00000+0  33387-3 0  2577
2 59541  43.0022 354.7362 0001507 269.8758 354.3620 15.27573343    19

Acompanhe STARLINK-31481 em tempo real com AllMySat

Download on the App Store